Other Surface Observations
Issued by NWS

Home | Current Version | Previous Version | Text Only | Print | Product List | Glossary On
Versions: 1 2 3 4 5 6 7 8 9 10 11 12 13 14 15 16 17 18 19 20 21 22 23 24 25 26 27 28 29 30 31 32 33 34 35 36 37 38 39 40 41 42 43 44 45 46 47 48 49 50
000
SXUS52 KTAE 020505
OSOTAE
OSOTAE
North Florida/South Alabama/Southwest Georgia Weather Roundup
National Weather Service Tallahassee Florida
100 AM EDT THU APR 02 2015

Note: "fair" indicates few or no clouds below 12,000 feet with no
significant weather and/or obstructions to visibility.

!FLZ017-115-028-034-025-020600
...North Florida...

CITY           SKY/WX    TMP DP  RH WIND       PRES   REMARKS
TALLAHASSEE    MOCLDY    65  59  81 CALM      30.13R
APALACHICOLA   CLEAR     70  66  87 W3        30.13S
PERRY          MOCLDY    64  64  97 CALM      30.15S FOG
CROSS CITY       N/A     65  64  97 W3        30.15R
JACKSONVILLE   PTCLDY    58  57  97 CALM      30.17S
$$

!FLZ112-006-005-002-011-020600
...Florida Panhandle...

CITY           SKY/WX    TMP DP  RH WIND       PRES   REMARKS
MARIANNA       MOCLDY    65  64  97 SW6       30.11F
BONIFAY        FAIR      62  61  96 CALM      30.12F
PANAMA CITY NW FAIR      63  62  97 CALM      30.11F FOG
TYNDALL AFB    MOCLDY    69  68  95 SW6       30.12S
TYND DRONE APT FAIR      69  69  97 SW5       30.12S
DE FUNIAK SPR  FAIR      63  62  97 SW5       30.12F
EGLIN AFB      CLOUDY    69  66  93 S3        30.11S
DESTIN         CLOUDY    71  67  87 S3        30.11S
HURLBURT       CLOUDY    69  64  84 S5        30.09F
CRESTVIEW      MOCLDY    62  61  96 CALM      30.12F
PENSACOLA      CLOUDY    70  67  90 S8        30.10S
$$

!ALZ063-066-020600
...South Alabama...

CITY           SKY/WX    TMP DP  RH WIND       PRES   REMARKS
DOTHAN         PTCLDY    66  61  84 SW7       30.14F
OZARK CAIRNS   PTCLDY    65  59  81 S3        30.11S
FT RUCKER HELI PTCLDY    64  60  87 CALM      30.10S
RUCKER HELI 3  FAIR      67  61  80 SW6       30.12S
RUCKER HELI 2  FAIR      64  60  87 CALM      30.11S
FLORALA APT    PTCLDY    65  61  87 SW7       30.12F
ANDALUSIA      PTCLDY    68  61  78 W3        30.10F
TROY           CLEAR     65  57  75 SW3       30.10F
EUFALA         MOCLDY    69  59  70 SW5       30.09S
MOBILE         MOCLDY    67  65  93 S5        30.09F
$$

!GAZ120>161-020600
...Southwest and South Central Georgia...

CITY           SKY/WX    TMP DP  RH WIND       PRES   REMARKS
THOMASVILLE    FAIR      63  63 100 CALM      30.14S
BAINBRIDGE     MOCLDY    68  64  88 W5        30.12S
MOODY AFB      PTCLDY    64  59  85 E8        30.14S
VALDOSTA       MOCLDY    65  63  93 SE6       30.15R
MOULTRIE       MOCLDY    66  63  88 CALM      30.14S
BLAKELY        PTCLDY    68  63  83 CALM      30.12S
ALBANY         PTCLDY    67  58  72 S3        30.14S
TIFTON         FAIR      65  58  76 SE6       30.14S
FITZGERALD     FAIR      65  56  70 SE6       30.17S
CORDELE        FAIR      63  55  75 SW7       30.14R
AMERICUS       FAIR      61  55  82 SE6       30.13F
HOMERVILLE     FAIR      64  59  82 E6        30.17R
$$

!GMZ750-755-770-775-020600
...Coastal and Buoy Obs...

STATION/POSITION TIME  TEMP    WIND        PRES    VSBY  WAVE
                       AIR SEA DIR/SP/G                  HT/PER
                 (UTC) (F)     (DEG/KT/KT) (MB)    (MI)  (FT/S)
KEATON BEACH     0500   69     270/  8/  9 1020.9R
CEDAR KEY        0400   70     280/  6/  8 1021.3R
C TOWER          0500   69     240/  7/  7 1020.4S
APALACHICOLA BUO 0450   70 69  230/  4/  4 1020.9S         1/ 4
PANAMA CITY BUOY 0350   73 75  220/  8/ 10 1020.8          2/ 6
MOBILE BUOY      0450   73 72  180/ 14/ 16 1019.3R         3/ 4
ORANGE BCH AL BU 0450   71 71  170/  8/ 10 1018.4S         2/ 5
$$



USA.gov is the U.S. government's official web portal to all federal, state and local government web resources and services.